Springboro, OH

7:49 PM EST on February 07, 2016 (GMT -0500)
Dayton-Wright Brothers

Weather History for KMGY - April, 2014

Change the Weather History Date:

Saturday, April 26, 2014

  Actual Average (KFFO) Record (KFFO)
Temperature  
Mean Temperature 62 °F -  
Max Temperature 77 °F 64 °F 75 °F (2014)
Min Temperature 46 °F 42 °F 31 °F (2013)
Degree Days  
Heating Degree Days 4    
Growing Degree Days 12 (Base 50)    
Moisture  
Dew Point 43 °F    
Average Humidity 53    
Maximum Humidity 80    
Minimum Humidity 32    
Precipitation  
Precipitation 0.00 in - - ()
Sea Level Pressure  
Sea Level Pressure 29.90 in    
Wind  
Wind Speed 9 mph (West)    
Max Wind Speed 15 mph    
Max Gust Speed 28 mph    
Visibility 10 miles    
Events      
Averages and records for this station are not official NWS values.
T = Trace of Precipitation, MM = Missing Value Source: NWS Daily Summary

Daily Weather History Graph

Daily Weather History Graph

Search for Another Location

Airport or City:

Trip Planner

Search our weather history database for the weather conditions in past years. The results will help you decide how hot, cold, wet, or windy it might be!

Date:

Astronomy

Apr. 26, 2014 Rise Set
Actual Time 6:44 AM EDT 8:25 PM EDT
Civil Twilight 6:15 AM EDT 8:54 PM EDT
Nautical Twilight 5:40 AM EDT 9:29 PM EDT
Astronomical Twilight 5:03 AM EDT 10:06 PM EDT
Moon 5:07 AM EDT (4/26) 5:53 PM EDT (4/26)
Length of Visible Light 14h 39m
Length of Day
13h 41m
Waning Crescent, 8% of the Moon is Illuminated
Apr 26
Waning Crescent
Apr 29
New
May 6
First Quarter
May 14
Full
May 21
Last Quarter

Hourly Weather History & Observations

Time (EDT) Temp. Dew Point Humidity Pressure Visibility Wind Dir Wind Speed Gust Speed Precip Events Conditions
12:53 AM 48.0 °F 41.0 °F 77% 29.89 in 10.0 mi South 8.1 mph - N/A   Mostly Cloudy
1:53 AM 46.9 °F 41.0 °F 80% 29.89 in 10.0 mi South 6.9 mph - N/A   Clear
2:53 AM 46.9 °F 41.0 °F 80% 29.87 in 10.0 mi SSW 8.1 mph - N/A   Clear
3:53 AM 53.1 °F 41.0 °F 64% 29.86 in 10.0 mi SSW 8.1 mph - N/A   Overcast
4:53 AM 54.0 °F 41.0 °F 62% 29.87 in 10.0 mi SW 5.8 mph - N/A   Overcast
5:53 AM 54.0 °F 41.0 °F 62% 29.86 in 10.0 mi SW 10.4 mph - N/A   Scattered Clouds
6:53 AM 54.0 °F 41.0 °F 62% 29.88 in 10.0 mi SW 8.1 mph - N/A   Overcast
7:53 AM 53.1 °F 42.1 °F 66% 29.93 in 10.0 mi WNW 3.5 mph - N/A   Overcast
8:53 AM 55.9 °F 42.1 °F 60% 29.93 in 10.0 mi West 4.6 mph - N/A   Clear
9:53 AM 59.0 °F 43.0 °F 55% 29.92 in 10.0 mi WSW 9.2 mph - N/A   Mostly Cloudy
10:53 AM 64.0 °F 44.1 °F 48% 29.92 in 10.0 mi WSW 15.0 mph - N/A   Mostly Cloudy
11:53 AM 66.9 °F 45.0 °F 45% 29.91 in 10.0 mi WSW 10.4 mph - N/A   Clear
12:53 PM 71.1 °F 45.0 °F 39% 29.90 in 10.0 mi WSW 15.0 mph 18.4 mph N/A   Clear
1:53 PM 73.0 °F 45.0 °F 37% 29.89 in 10.0 mi West 11.5 mph 23.0 mph N/A   Clear
2:53 PM 75.0 °F 46.0 °F 36% 29.88 in 10.0 mi WNW 10.4 mph 19.6 mph N/A   Clear
3:53 PM 75.9 °F 46.0 °F 35% 29.88 in 10.0 mi WNW 11.5 mph 17.3 mph N/A   Partly Cloudy
4:53 PM 77.0 °F 45.0 °F 32% 29.87 in 10.0 mi WNW 15.0 mph 23.0 mph N/A   Clear
5:53 PM 75.9 °F 44.1 °F 32% 29.88 in 10.0 mi NW 15.0 mph 27.6 mph N/A   Partly Cloudy
6:53 PM 73.9 °F 46.0 °F 37% 29.88 in 10.0 mi NNW 9.2 mph - N/A   Clear
7:53 PM 66.9 °F 46.9 °F 49% 29.89 in 10.0 mi NNE 13.8 mph - N/A   Clear
8:53 PM 63.0 °F 45.0 °F 52% 29.91 in 10.0 mi NNE 9.2 mph - N/A   Clear
9:53 PM 62.1 °F 41.0 °F 46% 29.93 in 10.0 mi NNE 12.7 mph - N/A   Clear
10:53 PM 57.0 °F 39.9 °F 53% 29.95 in 10.0 mi NE 8.1 mph - N/A   Clear
11:53 PM 55.0 °F 37.9 °F 53% 29.97 in 10.0 mi ENE 12.7 mph - N/A   Clear